Regional Weather Roundup
Issued by NWS

Home | Current Version | Previous Version | Graphics & Text | Print | Product List | Glossary On
Versions: 1 2 3 4 5 6 7 8 9 10 11 12 13 14 15 16 17 18 19 20 21 22 23 24 25 26 27 28 29 30 31 32 33 34 35 36 37 38 39 40 41 42 43 44 45 46 47 48 49 50
000
ASUS43 KIND 012009
RWRIN

WEATHER ROUNDUP FOR INDIANA
NATIONAL WEATHER SERVICE INDIANAPOLIS IN
300 PM EST SUN MAR 01 2015

NOTE: "FAIR" INDICATES FEW OR NO CLOUDS BELOW 12,000 FEET WITH NO
SIGNIFICANT WEATHER AND/OR OBSTRUCTIONS TO VISIBILITY.

* - STATION DOES NOT REPORT WEATHER SUCH AS PRECIPITATION OR FOG.

+ - STATION NOT QUALITY CONTROLLED BY THE NATIONAL WEATHER SERVICE.
    USE DATA WITH CAUTION...ESPECIALLY DEWPOINT AND RELATIVE
    HUMIDITY OBSERVATIONS.

INZ001>003-010>013-019-020-012100-
NORTHWEST INDIANA

CITY           SKY/WX    TMP DP  RH WIND       PRES   REMARKS
GARY /AIRPORT/ LGT SNOW  27  16  63 W7        30.32F WCI  19
KNOX *+          N/A     23  10  58 NW6       30.30S WCI  16
LA PORTE +     LGT SNOW  26  19  76 SW5       30.31S WCI  20
MICHIGAN CITY+ FLURRIES  27  14  59 SW7       30.30F WCI  19
MONTICELLO +   CLOUDY    24  21  87 W5        30.29F WCI  19
RENSSELAER +   CLOUDY    27  23  86 W6        30.30F WCI  20
VALPARAISO     CLOUDY    23  18  81 S8        30.30S WCI  14

$$

LMZ046-743>745-012100-
SOUTHERN LAKE MICHIGAN

STATION/POSITION TIME  TEMP WIND        PRES
                       AIR  DIR/SP/G
                 (UTC) (F)  (DEG/KT/KT) (MB)
MICHIGAN CITY    2000   22  240/  5/  6   N/A

$$

INZ004-005-014>016-021>024-012100-
NORTH CENTRAL INDIANA

CITY           SKY/WX    TMP DP  RH WIND       PRES   REMARKS
ELKHART        LGT SNOW  25  16  68 CALM      30.30F
GOSHEN         LGT SNOW  22  19  89 W3        30.28F FOG
LOGANSPORT +   CLOUDY    27  23  86 SW3       30.30S FOG
PERU/GRISSOM   CLOUDY    25  22  88 W5        30.27F WCI  19
ROCHESTER +    PTSUNNY   30  23  74 SW5       30.28F WCI  25
SOUTH BEND     LGT SNOW  25  18  74 CALM      30.30F
WARSAW +       LGT SNOW  27  21  80 NW3       30.28F

$$

INZ006>009-017-018-025>027-012100-
NORTHEAST INDIANA

CITY           SKY/WX    TMP DP  RH WIND       PRES   REMARKS
ANGOLA *+      CLOUDY    23  18  80 NW6       30.25F WCI  16
FORT WAYNE     CLOUDY    24  21  88 CALM      30.27F FOG
HUNTINGTON +   CLOUDY    26  19  76 CALM      30.27F HAZE

$$

INZ028-029-035-036-043>045-051>053-012100-
WEST CENTRAL INDIANA

CITY           SKY/WX    TMP DP  RH WIND       PRES   REMARKS
CRAWFORDSVL +  LGT SNOW  26  20  77 CALM      30.29S
GREENCASTLE +  LGT SNOW  30  27  86 N3        30.29S
LAFAYETTE      CLOUDY    26  21  81 N5        30.31S WCI  20
TERRE HAUTE    CLOUDY    30  27  88 NW3       30.31S FOG

$$

INZ030>032-037>040-046>048-054>057-064-065-012100-
CENTRAL INDIANA

CITY           SKY/WX    TMP DP  RH WIND       PRES   REMARKS
CP ATTERBURY + LGT SNOW  32  30  93 CALM      30.28F
COLUMBUS       LGT SNOW  30  28  93 CALM      30.30S FOG
FRANKFORT +    LGT SNOW  28  24  86 CALM      30.30S
GREENWOOD *+   CLOUDY    30  27  86 CALM      30.28F
INDIANAPOLIS   LGT SNOW  30  27  88 NW3       30.27S FOG
-EAGLE CREEK   LGT SNOW  29  26  89 NW3       30.27S FOG
KOKOMO *+      PTSUNNY   27  21  80 CALM      30.28F
MARION +       LGT SNOW  25  22  87 W3        30.27F
MT COMFORT *+  CLOUDY    32  23  69 CALM      30.27S
SHELBYVILLE    CLOUDY    33  29  85 CALM      30.27S FOG
ZIONSVILLE +   LGT SNOW  29  24  79 NW5       30.28S WCI  24

$$

INZ033-034-041-042-049-050-058-059-012100-
EAST CENTRAL INDIANA

CITY           SKY/WX    TMP DP  RH WIND       PRES   REMARKS
MUNCIE         LGT SNOW  27  25  92 NW6       30.26F VSB 3/4 WCI  20

$$

INZ060-061-067>069-081>083-085>088-012100-
SOUTHWEST INDIANA

CITY           SKY/WX    TMP DP  RH WIND       PRES   REMARKS
EVANSVILLE     CLOUDY    37  29  72 NW9       30.33F
HUNTINGBURG *+ PTSUNNY   36  30  80 W5        30.31F
WASHINGTON +   CLOUDY    32  29  88 CALM      30.30F FOG

$$

INZ062-063-066-070>080-084-089>092-012100-
SOUTH CENTRAL AND SOUTHEAST INDIANA

CITY           SKY/WX    TMP DP  RH WIND       PRES   REMARKS
BLOOMINGTON    MIX PCPN  32  30  92 W5        30.27F FOG     WCI  27
NORTH VERNON + CLOUDY    34  34 100 W3        30.28F FOG
SEYMOUR +      CLOUDY    34  32  93 NW5       30.29F FOG     WCI  30

$$




USA.gov is the U.S. government's official web portal to all federal, state and local government web resources and services.